Simultaneous Nadir Overpasses (SNOs) Predictions

Prediction of SNOs between FY3D and NOAA-19 Satellite Orbit:

Table of predicted SNOs for the next 14.0 days since TLE Epoch: 11/28/2020
Index Date (FY3D) Time (FY3D) Lat,Lon (FY3D) SZA (FY3D ) Date (NOAA-19) Time (NOAA-19) Lat,Lon (NOAA-19) SZA (NOAA-19 ) Distance(km) Time Diff (sec)
1 12/09/2020 13:10:00 -78.64, 135.99 77.56 12/09/2020 13:08:56 -78.66, 131.85 77.18 90.67 64
2 12/09/2020 14:00:53 78.96, -58.76 102.90 12/09/2020 13:59:44 78.96, -58.64 102.91 2.50 69
3 12/09/2020 14:51:38 -78.97, 108.46 77.09 12/09/2020 14:50:48 -78.94, 108.47 77.10 3.24 50
4 12/09/2020 15:42:22 78.96, -84.13 102.90 12/09/2020 15:41:44 78.97, -84.02 102.92 2.96 38
5 12/09/2020 16:33:07 -78.97, 83.09 77.08 12/09/2020 16:32:48 -78.96, 83.09 77.09 1.52 19
6 12/09/2020 17:23:51 78.95,-109.50 102.91 12/09/2020 17:23:45 78.95,-109.65 102.92 3.34 6
7 12/09/2020 18:14:36 -78.97, 57.72 77.07 12/09/2020 18:14:48 -78.97, 57.71 77.07 0.35 12
8 12/09/2020 19:05:21 78.99,-135.11 102.97 12/09/2020 19:05:45 78.97,-135.03 102.93 2.87 24
9 12/09/2020 19:56:05 -78.97, 32.35 77.07 12/09/2020 19:56:48 -78.99, 32.33 77.06 1.96 43
10 12/09/2020 20:46:50 78.99,-160.48 102.97 12/09/2020 20:47:45 78.99,-160.41 102.95 1.67 55
11 12/09/2020 21:37:34 -78.97, 6.99 77.06 12/09/2020 21:38:48 -79.00, 6.95 77.05 3.66 74
